OK2ZI Weather Reports


time (UTC)temp
F
wind
direction
speed
knots
gust
knots
rain 1hr
in
rain 24hr
in
rain mn
in
humidity
%
barometer
mb
20260507044207 53 168 12.2 12.2 0.00 0.00 0.00 84 1007.0
20260507044011 53 174 12.2 12.2 0.00 0.00 0.00 84 1007.0
20260507043807 53 198 12.2 12.2 0.00 0.00 0.00 84 1007.0
20260507043607 53 186 14.8 15.6 0.00 0.00 0.00 84 1007.0
20260507043407 53 204 12.2 12.2 0.00 0.00 0.00 84 1007.0
20260507043207 53 204 7.8 7.8 0.00 0.00 0.00 84 1007.0
20260507043015 53 186 16.5 17.4 0.00 0.00 0.00 85 1007.0
20260507042807 53 210 7.8 7.8 0.00 0.00 0.00 84 1007.0
20260507042614 53 192 7.8 7.8 0.00 0.00 0.00 85 1007.0
20260507042407 53 204 14.8 15.6 0.00 0.00 0.00 85 1007.0
20260507042206 53 204 7.8 7.8 0.00 0.00 0.00 85 1007.0
20260507042010 53 210 7.0 7.0 0.00 0.00 0.00 86 1007.0
20260507041808 53 198 7.0 7.0 0.00 0.00 0.00 86 1007.0
20260507041606 53 216 6.1 6.1 0.00 0.00 0.00 86 1007.0
20260507041406 53 222 7.8 7.8 0.00 0.00 0.00 86 1007.0
20260507041206 53 228 7.8 7.8 0.00 0.00 0.00 87 1007.0
20260507041011 52 204 6.1 6.1 0.00 0.00 0.00 87 1007.0
20260507040806 52 222 6.1 6.1 0.00 0.00 0.00 88 1007.0
20260507040606 52 228 5.2 5.2 0.00 0.00 0.00 88 1007.0
20260507040407 52 228 12.2 12.2 0.00 0.00 0.00 87 1007.0
20260507040206 52 234 7.0 7.0 0.00 0.00 0.00 88 1007.0
20260507040021 52 234 7.0 7.0 0.00 0.00 0.00 88 1007.0
20260507035806 52 222 7.8 7.8 0.00 0.00 0.00 89 1007.0
20260507035606 52 222 7.0 7.0 0.00 0.00 0.00 89 1007.0
20260507035406 52 216 5.2 5.2 0.00 0.00 0.00 90 1007.0
20260507035010 52 198 7.0 7.0 0.00 0.00 0.00 89 1007.0
20260507034807 52 210 6.1 6.1 0.00 0.00 0.00 90 1007.0
20260507034605 52 222 7.8 7.8 0.00 0.00 0.00 89 1007.0
20260507034406 52 180 6.1 6.1 0.00 0.00 0.00 89 1007.0
20260507034206 52 198 7.8 7.8 0.00 0.00 0.00 89 1007.0
20260507034010 52 168 12.2 12.2 0.00 0.00 0.00 89 1007.0
20260507033806 52 198 7.8 7.8 0.00 0.00 0.00 89 1007.0
20260507033606 52 174 7.8 7.8 0.00 0.00 0.00 89 1007.0
20260507033407 52 216 12.2 12.2 0.00 0.00 0.00 89 1007.0
20260507033206 52 174 13.0 13.0 0.00 0.00 0.00 90 1007.0
20260507033015 53 174 12.2 12.2 0.00 0.00 0.00 90 1007.0
20260507032806 53 168 7.0 7.0 0.00 0.00 0.00 90 1007.0
20260507032606 53 180 7.8 7.8 0.00 0.00 0.00 90 1007.0
20260507032406 53 174 7.8 7.8 0.00 0.00 0.00 90 1006.0
20260507032206 53 174 13.0 13.0 0.00 0.00 0.00 90 1006.0
20260507032012 53 186 4.3 4.3 0.00 0.00 0.00 90 1006.0
20260507031807 53 198 7.0 7.0 0.00 0.00 0.00 90 1006.0
20260507031606 53 198 7.8 7.8 0.00 0.00 0.00 90 1006.0
20260507031407 53 204 7.0 7.0 0.00 0.00 0.00 90 1006.0
20260507031206 53 174 7.0 7.0 0.00 0.00 0.00 90 1006.0
20260507031010 53 216 12.2 12.2 0.00 0.00 0.00 90 1006.0
20260507030806 52 216 15.6 16.5 0.00 0.00 0.00 90 1006.0
20260507030606 52 222 19.1 20.0 0.00 0.00 0.00 90 1006.0
20260507030206 52 222 7.0 7.0 0.00 0.00 0.00 90 1006.0
20260507025806 52 228 13.9 14.8 0.00 0.00 0.00 90 1006.0
20260507025606 52 236 17.4 19.1 0.00 0.00 0.00 90 1006.0
20260507025407 52 240 13.9 14.8 0.00 0.00 0.00 91 1006.0
20260507025206 52 228 12.2 12.2 0.00 0.00 0.00 91 1006.0
20260507025011 52 210 13.9 14.8 0.00 0.00 0.00 91 1006.0
20260507024806 52 228 13.0 13.0 0.00 0.00 0.00 91 1006.0
20260507024605 52 228 20.9 24.3 0.00 0.00 0.00 92 1006.0
20260507024407 52 240 12.2 12.2 0.00 0.00 0.00 92 1006.0
20260507024010 52 228 14.8 15.6 0.00 0.00 0.00 92 1006.0
20260507023806 52 222 13.9 14.8 0.00 0.00 0.00 92 1006.0
20260507023606 52 222 12.2 12.2 0.00 0.00 0.00 92 1006.0
20260507023206 52 228 13.0 14.8 0.00 0.00 0.00 92 1006.0
20260507023013 52 228 12.2 12.2 0.00 0.00 0.00 92 1006.0
20260507022806 52 228 12.2 12.2 0.00 0.00 0.00 92 1006.0
20260507022407 51 234 7.8 7.8 0.00 0.00 0.00 92 1006.0
20260507022206 51 204 17.4 18.2 0.00 0.00 0.00 92 1006.0
20260507022009 51 240 17.4 19.1 0.00 0.00 0.00 92 1006.0
20260507021806 51 228 14.8 15.6 0.00 0.00 0.00 92 1006.0
20260507021606 51 228 14.8 15.6 0.00 0.00 0.00 93 1006.0
20260507021407 51 204 12.2 12.2 0.00 0.00 0.00 94 1006.0
20260507021206 51 228 13.9 14.8 0.00 0.00 0.00 94 1006.0
20260507020806 50 204 12.2 12.2 0.00 0.00 0.00 94 1006.0
20260507020606 50 210 12.2 12.2 0.00 0.00 0.00 94 1006.0
20260507020407 51 216 12.2 12.2 0.00 0.00 0.00 93 1006.0
20260507020206 51 186 7.0 7.0 0.00 0.00 0.00 93 1006.0
20260507020021 51 180 7.0 7.0 0.00 0.00 0.00 93 1006.0
20260507015807 51 180 7.8 7.8 0.00 0.00 0.00 93 1006.0
20260507015407 51 174 7.8 7.8 0.00 0.00 0.00 93 1006.0
20260507015206 51 180 7.0 7.0 0.00 0.00 0.00 93 1006.0
20260507015010 51 180 7.0 7.0 0.00 0.00 0.00 93 1006.0
20260507014806 51 180 7.0 7.0 0.00 0.00 0.00 93 1006.0
20260507014606 51 186 6.1 6.1 0.00 0.00 0.00 93 1006.0
20260507014407 51 186 5.2 5.2 0.00 0.00 0.00 94 1006.0
20260507014207 50 186 7.0 7.0 0.00 0.00 0.00 94 1006.0
20260507014011 50 192 5.2 5.2 0.00 0.00 0.00 94 1006.0
20260507013805 50 192 7.0 7.0 0.00 0.00 0.00 94 1006.0
20260507013606 50 192 7.0 7.0 0.00 0.00 0.00 94 1006.0
20260507013406 50 234 0.0 0.0 0.00 0.00 0.00 94 1006.0
20260507013206 50 234 0.0 0.0 0.00 0.00 0.00 93 1006.0
20260507013013 51 234 0.0 0.0 0.00 0.00 0.00 93 1006.0
20260507012805 51 234 0.0 0.0 0.00 0.00 0.00 93 1006.0
20260507012606 51 234 0.0 0.0 0.00 0.00 0.00 93 1006.0
20260507012406 51 234 0.0 0.0 0.00 0.00 0.00 93 1006.0
20260507012206 51 234 0.0 0.0 0.00 0.00 0.00 92 1006.0
20260507012011 51 234 0.0 0.0 0.00 0.00 0.00 92 1006.0
20260507011807 51 234 0.0 0.0 0.00 0.00 0.00 91 1006.0
20260507011607 51 234 4.3 4.3 0.00 0.00 0.00 91 1006.0
20260507011406 52 234 0.0 0.0 0.00 0.00 0.00 91 1005.0
20260507011206 52 234 0.0 0.0 0.00 0.00 0.00 90 1005.0
20260507011010 52 234 0.0 0.0 0.00 0.00 0.00 90 1005.0
20260507010607 52 234 0.0 0.0 0.00 0.00 0.00 90 1005.0
20260507010407 52 234 5.2 5.2 0.00 0.00 0.00 89 1005.0
20260507010206 52 234 6.1 6.1 0.00 0.00 0.00 90 1005.0
20260507010019 53 234 5.2 5.2 0.00 0.00 0.00 89 1005.0
20260507005807 53 234 6.1 6.1 0.00 0.00 0.00 89 1005.0
20260507005606 53 234 4.3 4.3 0.00 0.00 0.00 89 1005.0
20260507005206 53 234 4.3 4.3 0.00 0.00 0.00 89 1005.0
20260507005010 53 234 0.0 0.0 0.00 0.00 0.00 89 1005.0
20260507004605 53 234 7.8 7.8 0.00 0.00 0.00 88 1005.0
20260507004406 53 234 0.0 0.0 0.00 0.00 0.00 88 1005.0
20260507004207 53 234 7.0 7.0 0.00 0.00 0.00 88 1005.0
20260507003806 53 228 7.8 7.8 0.00 0.00 0.00 87 1005.0
20260507003605 53 228 12.2 12.2 0.00 0.00 0.00 87 1005.0
20260507003406 53 222 13.0 13.0 0.00 0.00 0.00 87 1005.0
20260507003207 53 222 7.8 7.8 0.00 0.00 0.00 87 1005.0
20260507003014 53 228 7.0 7.0 0.00 0.00 0.00 87 1005.0
20260507002607 53 186 5.2 5.2 0.00 0.00 0.00 87 1005.0
20260507002406 53 186 7.0 7.0 0.00 0.00 0.00 87 1005.0
20260507002011 53 204 6.1 6.1 0.00 0.00 0.00 87 1005.0
20260507001807 53 204 7.0 7.0 0.00 0.00 0.00 86 1005.0
20260507001607 53 204 7.0 7.0 0.00 0.00 0.00 86 1005.0
20260507001406 53 186 5.2 5.2 0.00 0.00 0.00 86 1005.0
20260507001207 53 186 7.0 7.0 0.00 0.00 0.00 85 1005.0
20260507001012 53 222 6.1 6.1 0.00 0.00 0.00 85 1005.0
20260507000806 53 216 5.2 5.2 0.00 0.00 0.00 85 1005.0
20260507000607 52 192 7.8 7.8 0.00 0.00 0.00 85 1005.0
20260507000406 52 258 7.0 7.0 0.00 0.00 0.00 86 1005.0
20260507000207 52 270 7.8 7.8 0.00 0.00 0.00 86 1005.0
20260507000017 52 294 6.1 6.1 0.00 0.00 0.00 86 1005.0
20260506235806 52 306 5.2 5.2 0.00 0.00 0.00 86 1005.0
20260506235606 52 258 6.1 6.1 0.00 0.00 0.00 86 1005.0
20260506235406 53 258 5.2 5.2 0.00 0.00 0.00 85 1005.0
20260506235206 53 258 0.0 0.0 0.00 0.00 0.00 85 1005.0
20260506234607 53 258 5.2 5.2 0.00 0.00 0.00 84 1005.0
20260506234407 53 258 4.3 4.3 0.00 0.00 0.00 84 1005.0
20260506234206 53 246 6.1 6.1 0.00 0.00 0.00 83 1005.0
20260506233806 54 241 5.2 5.2 0.00 0.00 0.00 83 1005.0
20260506233606 54 240 4.3 4.3 0.00 0.00 0.00 82 1005.0
20260506233407 54 240 0.0 0.0 0.00 0.00 0.00 82 1005.0
20260506233206 54 240 7.8 7.8 0.00 0.00 0.00 82 1005.0
20260506233014 54 240 7.0 7.0 0.00 0.00 0.00 81 1005.0
20260506232806 54 228 6.1 6.1 0.00 0.00 0.00 82 1005.0
20260506232606 55 222 7.8 7.8 0.00 0.00 0.00 81 1005.0
20260506232407 55 216 13.0 13.0 0.00 0.00 0.00 81 1005.0
20260506232207 55 240 13.0 13.0 0.00 0.00 0.00 81 1005.0
20260506232010 55 276 7.8 7.8 0.00 0.00 0.00 81 1005.0
20260506231806 55 222 12.2 12.2 0.00 0.00 0.00 81 1005.0
20260506231606 55 240 12.2 12.2 0.00 0.00 0.00 80 1005.0
20260506231406 55 198 7.8 7.8 0.00 0.00 0.00 80 1005.0
20260506231206 54 264 13.0 13.0 0.00 0.00 0.00 81 1005.0
20260506230807 54 216 13.0 14.8 0.00 0.00 0.00 83 1005.0
20260506230406 54 204 7.8 7.8 0.00 0.00 0.00 84 1004.0
20260506230206 54 228 13.9 14.8 0.00 0.00 0.00 83 1004.0
20260506230017 54 222 12.2 12.2 0.00 0.00 0.00 84 1004.0
20260506225605 54 230 7.0 7.0 0.00 0.00 0.00 83 1004.0
20260506225407 55 230 5.2 5.2 0.00 0.00 0.00 83 1004.0
20260506225206 55 230 7.0 7.0 0.00 0.00 0.00 83 1004.0
20260506225010 55 234 7.0 7.0 0.00 0.00 0.00 82 1004.0
20260506223806 55 276 12.2 12.2 0.00 0.00 0.00 80 1004.0
20260506223606 55 281 12.2 12.2 0.00 0.00 0.00 80 1004.0
20260506223407 55 280 7.8 7.8 0.00 0.00 0.00 80 1003.0
20260506223207 56 288 7.8 7.8 0.00 0.00 0.00 79 1003.0
20260506223014 56 274 7.8 7.8 0.00 0.00 0.00 79 1004.0
20260506222806 56 276 7.8 7.8 0.00 0.00 0.00 78 1004.0
20260506222407 57 294 12.2 12.2 0.00 0.00 0.00 77 1004.0
20260506222206 57 264 13.9 14.8 0.00 0.00 0.00 77 1004.0
20260506222011 57 262 13.0 13.0 0.00 0.00 0.00 77 1003.0
20260506221605 57 288 19.1 21.7 0.00 0.00 0.00 76 1003.0
20260506221407 58 286 19.1 20.9 0.00 0.00 0.00 77 1004.0
20260506221011 57 270 12.2 12.2 0.00 0.00 0.00 77 1003.0
20260506220806 57 288 17.4 19.1 0.00 0.00 0.00 77 1003.0
20260506220606 57 246 19.1 20.9 0.00 0.00 0.00 77 1003.0
20260506220407 57 262 20.0 22.6 0.00 0.00 0.00 77 1003.0
20260506220020 58 274 25.2 26.1 0.00 0.00 0.00 76 1003.0
20260506215806 58 291 16.5 17.4 0.00 0.00 0.00 76 1003.0
20260506215611 58 234 16.5 17.4 0.00 0.00 0.00 77 1003.0
20260506215406 58 300 15.6 16.5 0.00 0.00 0.00 77 1003.0
20260506215206 58 279 17.4 19.1 0.00 0.00 0.00 77 1003.0
20260506215008 58 236 7.0 7.0 0.00 0.00 0.00 77 1003.0
20260506214606 58 222 0.0 0.0 0.00 0.00 0.00 76 1003.0
20260506214407 58 216 12.2 12.2 0.00 0.00 0.00 76 1003.0
20260506214206 58 198 14.8 15.6 0.00 0.00 0.00 75 1003.0
20260506214010 59 228 15.6 16.5 0.00 0.00 0.00 75 1003.0
20260506213806 59 230 7.8 7.8 0.00 0.00 0.00 74 1003.0
20260506213606 59 230 12.2 12.2 0.00 0.00 0.00 74 1003.0
20260506213407 59 240 7.8 7.8 0.00 0.00 0.00 73 1003.0
20260506213207 59 222 17.4 19.1 0.00 0.00 0.00 72 1003.0
20260506213015 59 210 13.9 15.6 0.00 0.00 0.00 71 1003.0
20260506212807 59 246 20.9 22.6 0.00 0.00 0.00 71 1003.0
20260506212605 59 204 15.6 16.5 0.00 0.00 0.00 71 1003.0
20260506212406 59 186 27.8 29.5 0.00 0.00 0.00 70 1003.0
20260506212205 59 216 13.9 15.6 0.00 0.00 0.00 69 1003.0
20260506212011 59 216 14.8 15.6 0.00 0.00 0.00 68 1003.0
20260506211806 59 162 13.0 14.8 0.00 0.00 0.00 68 1003.0
20260506211606 58 174 7.8 7.8 0.00 0.00 0.00 68 1003.0
20260506211411 58 174 14.8 15.6 0.00 0.00 0.00 69 1003.0
20260506211206 58 186 16.5 17.4 0.00 0.00 0.00 70 1003.0
20260506211010 58 186 4.3 4.3 0.00 0.00 0.00 70 1002.0
20260506210805 58 168 7.0 7.0 0.00 0.00 0.00 70 1002.0
20260506210605 58 180 7.8 7.8 0.00 0.00 0.00 70 1002.0
20260506210207 58 186 0.0 0.0 0.00 0.00 0.00 70 1002.0
20260506210018 58 174 7.8 7.8 0.00 0.00 0.00 71 1002.0
20260506205806 59 174 7.0 7.0 0.00 0.00 0.00 70 1002.0
20260506205406 60 174 4.3 4.3 0.00 0.00 0.00 68 1002.0
20260506205206 60 174 7.0 7.0 0.00 0.00 0.00 68 1002.0
20260506205011 60 132 5.2 5.2 0.00 0.00 0.00 68 1002.0
20260506204806 60 132 0.0 0.0 0.00 0.00 0.00 67 1002.0
20260506204407 61 132 0.0 0.0 0.00 0.00 0.00 67 1002.0
20260506204206 61 132 0.0 0.0 0.00 0.00 0.00 67 1002.0
20260506203806 61 132 0.0 0.0 0.00 0.00 0.00 66 1002.0
20260506203607 61 132 0.0 0.0 0.00 0.00 0.00 66 1002.0
20260506203407 61 185 0.0 0.0 0.00 0.00 0.00 66 1002.0
20260506203207 61 186 0.0 0.0 0.00 0.00 0.00 66 1002.0
20260506203015 61 186 4.3 4.3 0.00 0.00 0.00 66 1002.0
20260506202807 61 186 0.0 0.0 0.00 0.00 0.00 66 1002.0
20260506202606 61 186 0.0 0.0 0.00 0.00 0.00 66 1002.0
20260506202406 61 192 0.0 0.0 0.00 0.00 0.00 65 1002.0
20260506202206 61 192 0.0 0.0 0.00 0.00 0.00 65 1002.0
20260506202011 61 174 0.0 0.0 0.00 0.00 0.00 65 1002.0
20260506201806 61 174 0.0 0.0 0.00 0.00 0.00 65 1002.0
20260506201406 62 180 0.0 0.0 0.00 0.00 0.00 65 1002.0
20260506201206 62 180 0.0 0.0 0.00 0.00 0.00 65 1002.0
20260506201011 62 185 0.0 0.0 0.00 0.00 0.00 65 1002.0
20260506200806 62 185 0.0 0.0 0.00 0.00 0.00 65 1002.0
20260506200606 62 185 0.0 0.0 0.00 0.00 0.00 64 1002.0
20260506200407 62 180 0.0 0.0 0.00 0.00 0.00 64 1002.0
20260506200207 62 180 0.0 0.0 0.00 0.00 0.00 64 1002.0
20260506200017 62 186 0.0 0.0 0.00 0.00 0.00 64 1002.0
20260506195610 62 186 0.0 0.0 0.00 0.00 0.00 63 1002.0
20260506195407 62 180 0.0 0.0 0.00 0.00 0.00 63 1002.0
20260506195208 62 186 0.0 0.0 0.00 0.00 0.00 63 1002.0
20260506195011 63 186 0.0 0.0 0.00 0.00 0.00 63 1002.0
20260506194807 63 186 0.0 0.0 0.00 0.00 0.00 62 1002.0
20260506194607 63 180 0.0 0.0 0.00 0.00 0.00 62 1002.0
20260506194407 63 162 4.3 4.3 0.00 0.00 0.00 62 1002.0
20260506194206 63 126 0.0 0.0 0.00 0.00 0.00 62 1002.0
20260506194012 63 126 0.0 0.0 0.00 0.00 0.00 61 1002.0
20260506193405 63 174 0.0 0.0 0.00 0.00 0.00 61 1002.0
20260506193207 63 174 0.0 0.0 0.00 0.00 0.00 61 1002.0
20260506193011 64 61 0.0 0.0 0.00 0.00 0.00 60 1002.0
20260506192805 64 48 7.8 7.8 0.00 0.00 0.00 61 1002.0
20260506192607 64 186 0.0 0.0 0.00 0.00 0.00 60 1002.0
20260506192205 64 72 0.0 0.0 0.00 0.00 0.00 60 1002.0
20260506191807 64 138 4.3 4.3 0.00 0.00 0.00 60 1002.0
20260506191607 64 186 6.1 6.1 0.00 0.00 0.00 60 1002.0
20260506191405 64 162 0.0 0.0 0.00 0.00 0.00 59 1002.0
20260506191207 64 180 0.0 0.0 0.00 0.00 0.00 59 1002.0
20260506191012 64 162 0.0 0.0 0.00 0.00 0.00 59 1001.0
20260506190807 64 216 4.3 4.3 0.00 0.00 0.00 59 1001.0
20260506190407 64 132 0.0 0.0 0.00 0.00 0.00 58 1002.0
20260506190206 64 180 0.0 0.0 0.00 0.00 0.00 58 1002.0
20260506190019 64 204 7.0 7.0 0.00 0.00 0.00 58 1002.0
20260506185807 64 192 0.0 0.0 0.00 0.00 0.00 58 1002.0
20260506185407 65 145 0.0 0.0 0.00 0.00 0.00 58 1002.0
20260506185206 65 186 0.0 0.0 0.00 0.00 0.00 58 1002.0
20260506184807 65 196 0.0 0.0 0.00 0.00 0.00 57 1002.0
20260506184607 65 185 0.0 0.0 0.00 0.00 0.00 57 1002.0
20260506184012 65 216 0.0 0.0 0.00 0.00 0.00 56 1002.0
20260506183807 66 216 6.1 6.1 0.00 0.00 0.00 56 1002.0
20260506183606 66 120 6.1 6.1 0.00 0.00 0.00 56 1002.0
20260506183207 66 78 4.3 4.3 0.00 0.00 0.00 56 1001.0
20260506182807 66 156 0.0 0.0 0.00 0.00 0.00 56 1002.0
20260506182605 66 162 6.1 6.1 0.00 0.00 0.00 55 1002.0
20260506182205 66 156 6.1 6.1 0.00 0.00 0.00 55 1001.0
20260506182013 66 156 0.0 0.0 0.00 0.00 0.00 55 1001.0
20260506181807 66 156 5.2 5.2 0.00 0.00 0.00 55 1001.0
20260506181606 66 162 4.3 4.3 0.00 0.00 0.00 54 1001.0
20260506181406 67 162 0.0 0.0 0.00 0.00 0.00 54 1001.0
20260506181207 67 180 7.8 7.8 0.00 0.00 0.00 54 1001.0
20260506181008 67 174 0.0 0.0 0.00 0.00 0.00 54 1001.0
20260506180805 67 208 4.3 4.3 0.00 0.00 0.00 54 1001.0
20260506180607 67 108 5.2 5.2 0.00 0.00 0.00 53 1001.0
20260506180407 67 138 5.2 5.2 0.00 0.00 0.00 53 1001.0
20260506180019 67 162 4.3 4.3 0.00 0.00 0.00 53 1001.0
20260506175807 67 132 0.0 0.0 0.00 0.00 0.00 53 1001.0
20260506175640 67 174 5.2 5.2 0.00 0.00 0.00 53 1001.0
20260506175407 68 222 6.1 6.1 0.00 0.00 0.00 52 1001.0
20260506175206 68 120 5.2 5.2 0.00 0.00 0.00 52 1001.0
20260506175011 68 192 7.0 7.0 0.00 0.00 0.00 51 1001.0
20260506174811 68 144 0.0 0.0 0.00 0.00 0.00 51 1001.0
20260506174606 68 198 0.0 0.0 0.00 0.00 0.00 51 1001.0
20260506174406 68 108 4.3 4.3 0.00 0.00 0.00 50 1001.0
20260506174207 69 204 4.3 4.3 0.00 0.00 0.00 50 1001.0
20260506174012 69 144 5.2 5.2 0.00 0.00 0.00 50 1001.0
20260506173807 69 162 16.5 19.1 0.00 0.00 0.00 49 1001.0
20260506173606 69 150 0.0 0.0 0.00 0.00 0.00 49 1001.0
20260506173406 69 138 4.3 4.3 0.00 0.00 0.00 49 1001.0
20260506173015 69 185 5.2 5.2 0.00 0.00 0.00 49 1001.0
20260506172807 70 185 4.3 4.3 0.00 0.00 0.00 48 1001.0
20260506172606 70 167 0.0 0.0 0.00 0.00 0.00 48 1001.0
20260506172407 71 168 5.2 5.2 0.00 0.00 0.00 47 1001.0
20260506172207 71 179 12.2 12.2 0.00 0.00 0.00 46 1001.0
20260506171807 71 138 0.0 0.0 0.00 0.00 0.00 46 1001.0
20260506171607 71 234 7.0 7.0 0.00 0.00 0.00 46 1001.0
20260506171406 71 114 7.0 7.0 0.00 0.00 0.00 46 1001.0
20260506171206 71 138 7.0 7.0 0.00 0.00 0.00 46 1001.0
20260506171012 71 100 7.8 7.8 0.00 0.00 0.00 47 1001.0
20260506170807 72 162 7.0 7.0 0.00 0.00 0.00 46 1001.0
20260506170606 72 189 7.0 7.0 0.00 0.00 0.00 46 1001.0
20260506170407 71 156 6.1 6.1 0.00 0.00 0.00 46 1001.0
20260506170206 71 96 6.1 6.1 0.00 0.00 0.00 46 1001.0
20260506170016 71 126 0.0 0.0 0.00 0.00 0.00 46 1001.0
20260506165806 71 132 7.8 7.8 0.00 0.00 0.00 46 1001.0
20260506165406 71 117 7.8 7.8 0.00 0.00 0.00 47 1001.0
20260506165011 71 106 6.1 6.1 0.00 0.00 0.00 47 1001.0
20260506164806 71 162 0.0 0.0 0.00 0.00 0.00 47 1001.0
20260506164606 71 144 7.0 7.0 0.00 0.00 0.00 46 1001.0
20260506164406 71 198 7.0 7.0 0.00 0.00 0.00 46 1002.0
20260506164212 71 132 6.1 6.1 0.00 0.00 0.00 46 1002.0
20260506164011 71 168 7.8 7.8 0.00 0.00 0.00 46 1002.0
20260506163806 72 168 5.2 5.2 0.00 0.00 0.00 46 1002.0
20260506163606 72 210 7.8 7.8 0.00 0.00 0.00 46 1002.0
20260506163206 72 180 12.2 12.2 0.00 0.00 0.00 46 1002.0
20260506163015 72 126 4.3 4.3 0.00 0.00 0.00 46 1002.0
20260506162607 72 192 13.0 13.0 0.00 0.00 0.00 46 1002.0
20260506162407 72 101 7.8 7.8 0.00 0.00 0.00 45 1002.0
20260506162207 72 198 7.0 7.0 0.00 0.00 0.00 45 1002.0
20260506162011 72 186 13.9 15.6 0.00 0.00 0.00 45 1002.0
20260506161807 72 192 7.8 7.8 0.00 0.00 0.00 45 1002.0
20260506161607 72 138 7.0 7.0 0.00 0.00 0.00 45 1002.0
20260506161407 72 140 12.2 12.2 0.00 0.00 0.00 44 1002.0
20260506161206 72 192 13.0 13.0 0.00 0.00 0.00 44 1002.0
20260506161012 73 152 7.0 7.0 0.00 0.00 0.00 44 1002.0
20260506160807 73 157 7.0 7.0 0.00 0.00 0.00 43 1002.0
20260506160406 74 210 17.4 19.1 0.00 0.00 0.00 42 1002.0
20260506160018 74 138 6.1 6.1 0.00 0.00 0.00 41 1002.0
20260506155806 74 138 7.8 7.8 0.00 0.00 0.00 41 1002.0
20260506155606 73 124 6.1 6.1 0.00 0.00 0.00 41 1002.0
20260506155407 73 178 7.8 7.8 0.00 0.00 0.00 42 1002.0
20260506155206 73 205 14.8 15.6 0.00 0.00 0.00 42 1002.0
20260506155011 74 162 7.0 7.0 0.00 0.00 0.00 42 1002.0
20260506154607 74 210 7.0 7.0 0.00 0.00 0.00 41 1002.0
20260506154406 73 204 13.0 14.8 0.00 0.00 0.00 41 1002.0
20260506154009 73 162 7.0 7.0 0.00 0.00 0.00 40 1002.0
20260506153807 72 126 7.0 7.0 0.00 0.00 0.00 41 1002.0
20260506153607 72 147 4.3 4.3 0.00 0.00 0.00 42 1002.0
20260506153404 72 174 12.2 12.2 0.00 0.00 0.00 43 1002.0
20260506153015 73 192 15.6 16.5 0.00 0.00 0.00 42 1002.0
20260506152407 73 104 0.0 0.0 0.00 0.00 0.00 42 1002.0
20260506152212 73 113 7.0 7.0 0.00 0.00 0.00 42 1002.0
20260506152008 73 132 4.3 4.3 0.00 0.00 0.00 43 1003.0
20260506151807 73 114 7.0 7.0 0.00 0.00 0.00 43 1003.0
20260506151607 73 147 0.0 0.0 0.00 0.00 0.00 42 1003.0
20260506151405 73 105 15.6 16.5 0.00 0.00 0.00 41 1003.0
20260506151205 76 246 13.0 14.8 0.00 0.00 0.00 40 1003.0
20260506150806 75 132 7.8 7.8 0.00 0.00 0.00 39 1003.0
20260506150405 74 173 12.2 12.2 0.00 0.00 0.00 40 1003.0
20260506150206 73 106 7.0 7.0 0.00 0.00 0.00 40 1003.0
20260506150016 73 147 4.3 4.3 0.00 0.00 0.00 41 1003.0
20260506145806 73 198 7.8 7.8 0.00 0.00 0.00 41 1003.0
20260506145606 74 186 13.0 14.8 0.00 0.00 0.00 40 1003.0
20260506145406 74 221 7.0 7.0 0.00 0.00 0.00 41 1003.0
20260506145011 74 184 7.0 7.0 0.00 0.00 0.00 40 1003.0
20260506144807 75 162 12.2 12.2 0.00 0.00 0.00 39 1003.0
20260506144607 76 202 12.2 12.2 0.00 0.00 0.00 37 1003.0
20260506144207 75 191 12.2 12.2 0.00 0.00 0.00 37 1003.0
20260506144011 74 156 6.1 6.1 0.00 0.00 0.00 38 1003.0
20260506143810 74 132 6.1 6.1 0.00 0.00 0.00 39 1003.0
20260506143606 73 168 12.2 12.2 0.00 0.00 0.00 40 1003.0
20260506143407 73 113 7.0 7.0 0.00 0.00 0.00 41 1003.0
20260506143206 73 132 6.1 6.1 0.00 0.00 0.00 42 1003.0
20260506143015 73 68 15.6 16.5 0.00 0.00 0.00 42 1003.0
20260506142807 73 246 13.9 15.6 0.00 0.00 0.00 42 1003.0
20260506142607 73 162 7.0 7.0 0.00 0.00 0.00 43 1003.0
20260506142407 73 108 7.8 7.8 0.00 0.00 0.00 43 1003.0
20260506142205 72 156 7.0 7.0 0.00 0.00 0.00 44 1003.0
20260506142012 72 107 7.8 7.8 0.00 0.00 0.00 44 1003.0
20260506141807 73 180 12.2 12.2 0.00 0.00 0.00 43 1003.0
20260506141606 73 114 7.0 7.0 0.00 0.00 0.00 43 1003.0
20260506141207 73 146 7.0 7.0 0.00 0.00 0.00 43 1003.0
20260506141010 73 150 5.2 5.2 0.00 0.00 0.00 43 1003.0
20260506140209 76 72 5.2 5.2 0.00 0.00 0.00 40 1003.0
20260506140020 76 126 12.2 12.2 0.00 0.00 0.00 40 1003.0
20260506135606 75 174 13.0 13.0 0.00 0.00 0.00 41 1003.0
20260506135011 74 197 19.1 20.0 0.00 0.00 0.00 43 1003.0
20260506134806 75 156 6.1 6.1 0.00 0.00 0.00 41 1003.0
20260506134607 77 112 7.0 7.0 0.00 0.00 0.00 39 1003.0
20260506134407 78 166 6.1 6.1 0.00 0.00 0.00 39 1003.0
20260506134207 77 211 12.2 12.2 0.00 0.00 0.00 39 1003.0
20260506134011 77 174 13.0 14.8 0.00 0.00 0.00 39 1003.0
20260506133806 77 174 12.2 12.2 0.00 0.00 0.00 39 1003.0
20260506133606 76 146 15.6 16.5 0.00 0.00 0.00 39 1003.0
20260506133406 76 202 13.9 15.6 0.00 0.00 0.00 39 1003.0
20260506133206 76 90 7.8 7.8 0.00 0.00 0.00 40 1003.0
20260506133015 76 157 12.2 12.2 0.00 0.00 0.00 40 1003.0
20260506132807 77 210 13.9 14.8 0.00 0.00 0.00 40 1003.0
20260506132607 78 162 20.9 24.3 0.00 0.00 0.00 41 1003.0
20260506132408 77 192 15.6 16.5 0.00 0.00 0.00 41 1003.0
20260506132207 76 150 6.1 6.1 0.00 0.00 0.00 41 1003.0
20260506131807 75 198 15.6 16.5 0.00 0.00 0.00 42 1003.0
20260506131605 74 206 7.8 7.8 0.00 0.00 0.00 43 1003.0
20260506131406 74 145 7.8 7.8 0.00 0.00 0.00 45 1003.0
20260506131206 74 166 15.6 17.4 0.00 0.00 0.00 44 1003.0
20260506131011 74 174 6.1 6.1 0.00 0.00 0.00 43 1004.0
20260506130806 73 162 12.2 12.2 0.00 0.00 0.00 44 1004.0
20260506130607 73 162 7.8 7.8 0.00 0.00 0.00 45 1004.0
20260506130407 73 168 7.8 7.8 0.00 0.00 0.00 46 1004.0
20260506130207 73 174 13.9 14.8 0.00 0.00 0.00 45 1004.0
20260506130021 73 168 12.2 12.2 0.00 0.00 0.00 45 1004.0
20260506125805 73 185 6.1 6.1 0.00 0.00 0.00 44 1004.0
20260506125607 73 162 5.2 5.2 0.00 0.00 0.00 44 1004.0
20260506125406 72 209 0.0 0.0 0.00 0.00 0.00 46 1004.0
20260506125206 72 192 19.1 20.9 0.00 0.00 0.00 46 1004.0
20260506124807 71 207 7.0 7.0 0.00 0.00 0.00 46 1004.0
20260506124607 71 120 0.0 0.0 0.00 0.00 0.00 47 1004.0
20260506124011 71 196 14.8 15.6 0.00 0.00 0.00 47 1004.0
20260506123806 71 114 5.2 5.2 0.00 0.00 0.00 47 1004.0
20260506123607 72 189 5.2 5.2 0.00 0.00 0.00 47 1004.0
20260506123207 73 196 15.6 17.4 0.00 0.00 0.00 44 1004.0
20260506123017 73 192 13.9 14.8 0.00 0.00 0.00 43 1004.0
20260506122807 73 192 12.2 12.2 0.00 0.00 0.00 43 1004.0
20260506122407 71 168 4.3 4.3 0.00 0.00 0.00 45 1004.0
20260506122011 71 184 0.0 0.0 0.00 0.00 0.00 48 1004.0
20260506121807 71 184 14.8 15.6 0.00 0.00 0.00 48 1004.0
20260506121607 71 186 12.2 12.2 0.00 0.00 0.00 46 1004.0
20260506121407 72 204 12.2 12.2 0.00 0.00 0.00 45 1004.0
20260506121013 72 204 7.8 7.8 0.00 0.00 0.00 44 1004.0
20260506120607 72 195 7.8 7.8 0.00 0.00 0.00 44 1004.0
20260506120205 72 198 13.0 13.0 0.00 0.00 0.00 44 1005.0
20260506120018 73 174 5.2 5.2 0.00 0.00 0.00 44 1004.0
20260506115807 73 167 6.1 6.1 0.00 0.00 0.00 43 1004.0
20260506115607 73 180 13.0 13.0 0.00 0.00 0.00 43 1004.0
20260506115407 73 198 7.8 7.8 0.00 0.00 0.00 42 1004.0
20260506115207 73 120 7.0 7.0 0.00 0.00 0.00 42 1004.0
20260506115011 73 186 7.8 7.8 0.00 0.00 0.00 43 1005.0
20260506114807 73 198 18.2 19.1 0.00 0.00 0.00 43 1005.0
20260506114606 74 186 17.4 18.2 0.00 0.00 0.00 42 1005.0
20260506114407 75 184 13.0 14.8 0.00 0.00 0.00 41 1005.0
20260506114207 75 144 14.8 15.6 0.00 0.00 0.00 40 1005.0
20260506114012 74 224 7.8 7.8 0.00 0.00 0.00 40 1004.0
20260506113807 74 239 14.8 15.6 0.00 0.00 0.00 39 1004.0
20260506113606 73 168 0.0 0.0 0.00 0.00 0.00 41 1004.0
20260506113407 72 126 7.0 7.0 0.00 0.00 0.00 42 1004.0
20260506113207 72 201 4.3 4.3 0.00 0.00 0.00 44 1004.0
20260506113015 72 192 17.4 19.1 0.00 0.00 0.00 43 1005.0
20260506112606 72 180 6.1 6.1 0.00 0.00 0.00 43 1005.0
20260506112407 71 162 7.0 7.0 0.00 0.00 0.00 43 1005.0
20260506112206 71 128 4.3 4.3 0.00 0.00 0.00 42 1005.0
20260506112012 71 208 7.8 7.8 0.00 0.00 0.00 44 1005.0
20260506111806 71 174 7.8 7.8 0.00 0.00 0.00 44 1005.0
20260506111607 72 180 7.8 7.8 0.00 0.00 0.00 42 1005.0
20260506111407 72 186 6.1 6.1 0.00 0.00 0.00 42 1005.0
20260506111206 73 192 7.8 7.8 0.00 0.00 0.00 41 1005.0
20260506111011 73 192 6.1 6.1 0.00 0.00 0.00 40 1005.0
20260506110807 73 156 4.3 4.3 0.00 0.00 0.00 41 1005.0
20260506110606 73 183 13.0 13.0 0.00 0.00 0.00 41 1005.0
20260506110407 74 167 6.1 6.1 0.00 0.00 0.00 40 1005.0
20260506110207 75 207 12.2 12.2 0.00 0.00 0.00 39 1005.0
20260506110018 76 134 7.0 7.0 0.00 0.00 0.00 38 1005.0
20260506105806 76 162 4.3 4.3 0.00 0.00 0.00 39 1005.0
20260506105607 76 192 6.1 6.1 0.00 0.00 0.00 40 1005.0
20260506105406 75 196 12.2 12.2 0.00 0.00 0.00 41 1005.0
20260506105012 73 192 6.1 6.1 0.00 0.00 0.00 40 1005.0
20260506104607 73 186 6.1 6.1 0.00 0.00 0.00 44 1005.0
20260506104407 73 168 12.2 12.2 0.00 0.00 0.00 43 1005.0
20260506104206 72 144 0.0 0.0 0.00 0.00 0.00 43 1005.0
20260506104013 72 192 7.0 7.0 0.00 0.00 0.00 43 1005.0
20260506103807 72 206 16.5 17.4 0.00 0.00 0.00 44 1005.0
20260506103407 72 183 19.1 20.9 0.00 0.00 0.00 44 1005.0
20260506103205 73 174 7.0 7.0 0.00 0.00 0.00 45 1005.0
20260506103014 73 179 13.0 14.8 0.00 0.00 0.00 46 1005.0
20260506102807 73 211 24.3 24.3 0.00 0.00 0.00 43 1005.0
20260506102607 73 184 12.2 12.2 0.00 0.00 0.00 45 1005.0
20260506102406 73 184 7.8 7.8 0.00 0.00 0.00 44 1005.0
20260506102012 73 150 0.0 0.0 0.00 0.00 0.00 44 1005.0
20260506101808 73 90 6.1 6.1 0.00 0.00 0.00 44 1005.0
20260506101611 72 167 7.0 7.0 0.00 0.00 0.00 45 1005.0
20260506101409 72 153 5.2 5.2 0.00 0.00 0.00 46 1005.0
20260506101207 71 190 7.8 7.8 0.00 0.00 0.00 47 1005.0
20260506100606 71 174 19.1 20.0 0.00 0.00 0.00 46 1005.0
20260506100207 72 184 22.6 26.1 0.00 0.00 0.00 44 1005.0
20260506100021 72 173 4.3 4.3 0.00 0.00 0.00 44 1005.0
20260506095807 72 186 22.6 26.1 0.00 0.00 0.00 46 1005.0
20260506095407 71 192 12.2 12.2 0.00 0.00 0.00 47 1005.0
20260506095207 72 180 21.7 21.7 0.00 0.00 0.00 47 1005.0
20260506095011 73 192 15.6 16.5 0.00 0.00 0.00 43 1005.0
20260506094807 72 210 7.0 7.0 0.00 0.00 0.00 44 1005.0
20260506094406 71 186 6.1 6.1 0.00 0.00 0.00 47 1005.0
20260506094206 70 196 21.7 21.7 0.00 0.00 0.00 48 1005.0
20260506094012 70 180 0.0 0.0 0.00 0.00 0.00 50 1005.0
20260506093606 71 168 19.1 20.9 0.00 0.00 0.00 47 1005.0
20260506093406 71 178 13.9 14.8 0.00 0.00 0.00 48 1005.0
20260506093211 72 180 19.1 20.0 0.00 0.00 0.00 47 1005.0
20260506093016 71 179 5.2 5.2 0.00 0.00 0.00 50 1005.0
20260506092807 71 177 12.2 12.2 0.00 0.00 0.00 48 1005.0
20260506092606 71 189 12.2 12.2 0.00 0.00 0.00 49 1005.0
20260506092407 71 168 7.0 7.0 0.00 0.00 0.00 47 1005.0
20260506092207 70 138 4.3 4.3 0.00 0.00 0.00 49 1005.0
20260506092011 70 184 12.2 12.2 0.00 0.00 0.00 49 1005.0
20260506091807 69 179 4.3 4.3 0.00 0.00 0.00 51 1005.0
20260506091407 69 185 13.0 14.8 0.00 0.00 0.00 52 1005.0
20260506091207 69 186 16.5 17.4 0.00 0.00 0.00 51 1005.0
20260506091011 68 180 4.3 4.3 0.00 0.00 0.00 53 1005.0
20260506090807 68 179 21.7 24.3 0.00 0.00 0.00 52 1005.0
20260506090712 68 174 12.2 12.2 0.00 0.00 0.00 55 1005.0
20260506090411 68 172 7.8 7.8 0.00 0.00 0.00 54 1006.0
20260506090219 69 174 0.0 0.0 0.00 0.00 0.00 53 1006.0
20260506090031 69 192 7.0 7.0 0.00 0.00 0.00 53 1006.0
20260506085813 69 156 6.1 6.1 0.00 0.00 0.00 53 1006.0
20260506085507 70 198 19.1 20.0 0.00 0.00 0.00 50 1005.0
20260506085208 70 192 6.1 6.1 0.00 0.00 0.00 51 1005.0
20260506085012 69 191 7.0 7.0 0.00 0.00 0.00 53 1005.0
20260506084807 69 198 15.6 16.5 0.00 0.00 0.00 51 1005.0
20260506084622 69 198 7.8 7.8 0.00 0.00 0.00 53 1005.0
20260506084207 69 174 19.1 20.9 0.00 0.00 0.00 51 1005.0
20260506084013 70 102 5.2 5.2 0.00 0.00 0.00 49 1005.0
20260506083807 70 126 4.3 4.3 0.00 0.00 0.00 50 1005.0
20260506083608 70 189 14.8 15.6 0.00 0.00 0.00 50 1005.0
20260506083424 70 156 5.2 5.2 0.00 0.00 0.00 52 1006.0
20260506083023 69 146 5.2 5.2 0.00 0.00 0.00 53 1006.0
20260506082613 68 185 0.0 0.0 0.00 0.00 0.00 53 1006.0
20260506082407 68 180 12.2 12.2 0.00 0.00 0.00 54 1006.0
20260506082210 68 204 13.0 13.0 0.00 0.00 0.00 55 1006.0
20260506082012 68 197 15.6 16.5 0.00 0.00 0.00 52 1006.0
20260506081807 67 185 14.8 15.6 0.00 0.00 0.00 53 1006.0
20260506081606 67 168 7.0 7.0 0.00 0.00 0.00 59 1006.0
20260506081207 67 190 15.6 16.5 0.00 0.00 0.00 55 1006.0
20260506081013 67 192 7.8 7.8 0.00 0.00 0.00 56 1006.0
20260506080807 67 186 12.2 12.2 0.00 0.00 0.00 56 1006.0
20260506080606 66 198 0.0 0.0 0.00 0.00 0.00 59 1006.0
20260506080205 66 174 6.1 6.1 0.00 0.00 0.00 61 1005.0
20260506073409 65 210 13.0 13.0 0.00 0.00 0.00 59 1006.0
20260506073207 64 216 12.2 12.2 0.00 0.00 0.00 60 1006.0
20260506073015 64 168 12.2 12.2 0.00 0.00 0.00 59 1006.0
20260506072807 64 174 12.2 12.2 0.00 0.00 0.00 63 1006.0
20260506072607 64 180 7.8 7.8 0.00 0.00 0.00 64 1006.0
20260506072408 64 186 13.9 15.6 0.00 0.00 0.00 63 1006.0
20260506072207 65 180 20.0 21.7 0.00 0.00 0.00 61 1006.0
20260506072011 64 185 13.0 13.0 0.00 0.00 0.00 63 1006.0
20260506071807 64 180 7.0 7.0 0.00 0.00 0.00 64 1006.0
20260506071606 64 186 7.8 7.8 0.00 0.00 0.00 63 1006.0
20260506071406 64 192 12.2 12.2 0.00 0.00 0.00 66 1006.0
20260506071205 64 186 12.2 12.2 0.00 0.00 0.00 64 1006.0
20260506071009 64 180 16.5 17.4 0.00 0.00 0.00 65 1006.0
20260506070805 64 190 15.6 16.5 0.00 0.00 0.00 65 1006.0
20260506070605 64 186 17.4 19.1 0.00 0.00 0.00 64 1006.0
20260506070407 64 178 7.0 7.0 0.00 0.00 0.00 63 1006.0
20260506070206 64 168 7.8 7.8 0.00 0.00 0.00 64 1006.0
20260506062407 62 214 12.2 12.2 0.00 0.00 0.00 71 1006.0
20260506062205 62 180 12.2 12.2 0.00 0.00 0.00 69 1006.0
20260506062012 62 186 5.2 5.2 0.00 0.00 0.00 71 1006.0
20260506061807 61 180 0.0 0.0 0.00 0.00 0.00 70 1006.0
20260506061405 61 174 0.0 0.0 0.00 0.00 0.00 72 1006.0
20260506061011 60 186 7.0 7.0 0.00 0.00 0.00 73 1006.0
20260506060805 60 178 5.2 5.2 0.00 0.00 0.00 72 1006.0
20260506060607 60 174 7.0 7.0 0.00 0.00 0.00 74 1006.0
20260506060405 60 173 13.0 13.0 0.00 0.00 0.00 74 1006.0
20260506051407 56 186 7.8 7.8 0.00 0.00 0.00 84 1006.0
20260506051207 55 174 7.8 7.8 0.00 0.00 0.00 83 1006.0
20260506051011 55 179 7.8 7.8 0.00 0.00 0.00 86 1006.0
20260506050807 55 192 6.1 6.1 0.00 0.00 0.00 87 1006.0
20260506050407 54 192 7.0 7.0 0.00 0.00 0.00 86 1005.0
20260506050207 54 174 7.8 7.8 0.00 0.00 0.00 85 1005.0
20260506045012 52 286 5.2 5.2 0.00 0.00 0.00 87 1005.0
20260506044807 52 287 5.2 5.2 0.00 0.00 0.00 88 1005.0
20260506044607 53 287 0.0 0.0 0.00 0.00 0.00 88 1005.0